Time,TemperatureF,DewpointF,PressureIn,WindDirection,WindDirectionDegrees,WindSpeedMPH,WindSpeedGustMPH,Humidity,HourlyPrecipIn,Conditions,Clouds,dailyrainin,SoftwareType,DateUTC
2013-03-02 00:00:00,26.6,15.0,28.97,ENE,67,0.0,0.0,61,0.00,,,0.00,WUHU216WMR100,2013-03-02 05:00:00,
2013-03-02 00:01:00,26.6,15.0,28.97,ENE,67,0.0,0.0,61,0.00,,,0.00,WUHU216WMR100,2013-03-02 05:01:00,
2013-03-02 00:06:00,26.6,15.4,28.97,ENE,67,0.0,0.0,62,0.00,,,0.00,WUHU216WMR100,2013-03-02 05:06:00,
2013-03-02 00:11:00,26.6,16.1,28.97,ENE,67,0.0,0.0,64,0.00,,,0.00,WUHU216WMR100,2013-03-02 05:11:00,
2013-03-02 00:16:00,26.6,16.5,28.97,ENE,67,0.0,0.0,65,0.00,,,0.00,WUHU216WMR100,2013-03-02 05:16:00,
2013-03-02 00:21:00,26.4,16.6,28.97,ENE,67,0.0,0.0,66,0.00,,,0.00,WUHU216WMR100,2013-03-02 05:21:00,
2013-03-02 00:26:00,26.4,17.0,28.97,ENE,67,0.0,0.0,67,0.00,,,0.00,WUHU216WMR100,2013-03-02 05:26:00,
2013-03-02 00:31:00,26.4,17.3,28.97,ENE,67,0.0,0.0,68,0.00,,,0.00,WUHU216WMR100,2013-03-02 05:31:00,
2013-03-02 00:36:00,26.6,17.5,28.97,ENE,67,0.0,0.0,68,0.00,,,0.00,WUHU216WMR100,2013-03-02 05:36:00,
2013-03-02 00:41:00,26.4,17.7,28.97,ENE,67,0.0,0.0,69,0.00,,,0.00,WUHU216WMR100,2013-03-02 05:41:00,
2013-03-02 00:46:00,26.6,17.9,28.97,ENE,67,0.0,0.0,69,0.00,,,0.00,WUHU216WMR100,2013-03-02 05:46:00,
2013-03-02 00:51:00,26.6,18.2,28.97,ENE,67,0.0,0.0,70,0.00,,,0.00,WUHU216WMR100,2013-03-02 05:51:00,
2013-03-02 00:56:00,26.6,18.2,28.97,ENE,67,0.0,0.0,70,0.00,,,0.00,WUHU216WMR100,2013-03-02 05:56:00,
2013-03-02 01:01:00,26.6,18.2,28.97,ENE,67,0.0,0.0,70,0.00,,,0.00,WUHU216WMR100,2013-03-02 06:01:00,
2013-03-02 01:06:00,26.6,18.5,28.97,ENE,67,0.0,0.0,71,0.00,,,0.00,WUHU216WMR100,2013-03-02 06:06:00,
2013-03-02 01:11:00,26.6,18.5,28.97,ENE,67,0.0,0.0,71,0.00,,,0.00,WUHU216WMR100,2013-03-02 06:11:00,
2013-03-02 01:16:00,26.8,18.7,28.97,ENE,67,0.0,0.0,71,0.00,,,0.00,WUHU216WMR100,2013-03-02 06:16:00,
2013-03-02 01:21:00,26.8,18.7,28.97,ENE,67,0.0,0.0,71,0.00,,,0.00,WUHU216WMR100,2013-03-02 06:21:00,
2013-03-02 01:26:00,26.8,19.0,28.97,ENE,67,0.0,0.0,72,0.00,,,0.00,WUHU216WMR100,2013-03-02 06:26:00,
2013-03-02 01:31:00,26.8,19.0,28.97,ENE,67,0.0,0.0,72,0.00,,,0.00,WUHU216WMR100,2013-03-02 06:31:00,
2013-03-02 01:36:00,26.8,19.0,28.97,ENE,67,0.0,0.0,72,0.00,,,0.00,WUHU216WMR100,2013-03-02 06:36:00,
2013-03-02 01:41:00,26.8,19.0,28.97,ENE,67,0.0,0.0,72,0.00,,,0.00,WUHU216WMR100,2013-03-02 06:41:00,
2013-03-02 01:46:00,26.8,19.3,28.97,ENE,67,0.0,0.0,73,0.00,,,0.00,WUHU216WMR100,2013-03-02 06:46:00,
2013-03-02 01:51:00,26.8,19.3,28.97,ENE,67,0.0,0.0,73,0.00,,,0.00,WUHU216WMR100,2013-03-02 06:51:00,
2013-03-02 01:56:00,26.8,19.3,28.97,ENE,67,0.0,0.0,73,0.00,,,0.00,WUHU216WMR100,2013-03-02 06:56:00,
2013-03-02 02:01:00,26.8,19.3,28.97,ENE,67,0.0,0.0,73,0.00,,,0.00,WUHU216WMR100,2013-03-02 07:01:00,
2013-03-02 02:06:00,26.8,19.7,28.94,ENE,67,0.0,0.0,74,0.00,,,0.00,WUHU216WMR100,2013-03-02 07:06:00,
2013-03-02 02:11:00,26.6,19.5,28.94,ENE,67,0.0,0.0,74,0.00,,,0.00,WUHU216WMR100,2013-03-02 07:11:00,
2013-03-02 02:16:00,26.6,19.5,28.94,ENE,67,0.0,0.0,74,0.00,,,0.00,WUHU216WMR100,2013-03-02 07:16:00,
2013-03-02 02:22:00,26.8,19.7,28.97,ENE,67,0.0,0.0,74,0.00,,,0.00,WUHU216WMR100,2013-03-02 07:22:00,
2013-03-02 02:26:00,26.8,19.7,28.97,ENE,67,0.0,0.0,74,0.00,,,0.00,WUHU216WMR100,2013-03-02 07:26:00,
2013-03-02 02:31:00,26.8,20.0,28.97,ENE,67,0.0,0.0,75,0.00,,,0.00,WUHU216WMR100,2013-03-02 07:31:00,
2013-03-02 02:36:00,26.6,19.8,28.94,ENE,67,0.0,0.0,75,0.00,,,0.00,WUHU216WMR100,2013-03-02 07:36:00,
2013-03-02 02:41:00,26.6,19.8,28.94,ENE,67,0.0,0.0,75,0.00,,,0.00,WUHU216WMR100,2013-03-02 07:41:00,
2013-03-02 02:46:00,26.6,20.1,28.94,ENE,67,0.0,0.0,76,0.00,,,0.00,WUHU216WMR100,2013-03-02 07:46:00,
2013-03-02 02:51:00,26.6,20.1,28.94,ENE,67,0.0,0.0,76,0.00,,,0.00,WUHU216WMR100,2013-03-02 07:51:00,
2013-03-02 02:56:00,26.6,19.8,28.94,ENE,67,0.0,0.0,75,0.00,,,0.00,WUHU216WMR100,2013-03-02 07:56:00,
2013-03-02 03:01:00,26.6,20.1,28.94,ENE,67,0.0,0.0,76,0.00,,,0.00,WUHU216WMR100,2013-03-02 08:01:00,
2013-03-02 03:06:00,26.6,19.8,28.94,ENE,67,0.0,0.0,75,0.00,,,0.00,WUHU216WMR100,2013-03-02 08:06:00,
2013-03-02 03:11:00,26.6,19.8,28.94,ENE,67,0.0,0.0,75,0.00,,,0.00,WUHU216WMR100,2013-03-02 08:11:00,
2013-03-02 03:16:00,26.6,19.8,28.94,ENE,67,0.0,0.0,75,0.00,,,0.00,WUHU216WMR100,2013-03-02 08:16:00,
2013-03-02 03:21:00,26.6,19.8,28.94,ENE,67,0.0,0.0,75,0.00,,,0.00,WUHU216WMR100,2013-03-02 08:21:00,
2013-03-02 03:26:00,26.6,19.5,28.94,ENE,67,0.0,0.0,74,0.00,,,0.00,WUHU216WMR100,2013-03-02 08:26:00,
2013-03-02 03:31:00,26.6,19.5,28.94,ENE,67,0.0,0.0,74,0.00,,,0.00,WUHU216WMR100,2013-03-02 08:31:00,
2013-03-02 03:37:00,26.4,19.3,28.94,ENE,67,0.0,0.0,74,0.00,,,0.00,WUHU216WMR100,2013-03-02 08:37:00,
2013-03-02 03:42:00,26.2,19.1,28.94,ENE,67,0.0,0.0,74,0.00,,,0.00,WUHU216WMR100,2013-03-02 08:42:00,
2013-03-02 03:47:00,26.2,19.1,28.94,ENE,67,0.0,0.0,74,0.00,,,0.00,WUHU216WMR100,2013-03-02 08:47:00,
2013-03-02 03:52:00,26.1,19.0,28.94,ENE,67,0.0,0.0,74,0.00,,,0.00,WUHU216WMR100,2013-03-02 08:52:00,
2013-03-02 03:57:00,26.1,19.3,28.94,ENE,67,0.0,0.0,75,0.00,,,0.00,WUHU216WMR100,2013-03-02 08:57:00,
2013-03-02 04:02:00,26.1,19.3,28.94,ENE,67,0.0,0.0,75,0.00,,,0.00,WUHU216WMR100,2013-03-02 09:02:00,
2013-03-02 04:07:00,25.9,19.7,28.94,ENE,67,0.0,0.0,77,0.00,,,0.00,WUHU216WMR100,2013-03-02 09:07:00,
2013-03-02 04:12:00,25.7,19.8,28.94,ENE,67,0.0,0.0,78,0.00,,,0.00,WUHU216WMR100,2013-03-02 09:12:00,
2013-03-02 04:17:00,25.7,19.8,28.94,ENE,67,0.0,0.0,78,0.00,,,0.00,WUHU216WMR100,2013-03-02 09:17:00,
2013-03-02 04:22:00,25.7,20.1,28.94,ENE,67,0.0,0.0,79,0.00,,,0.00,WUHU216WMR100,2013-03-02 09:22:00,
2013-03-02 04:27:00,25.5,20.2,28.94,ENE,67,0.0,0.0,80,0.00,,,0.00,WUHU216WMR100,2013-03-02 09:27:00,
2013-03-02 04:32:00,25.5,20.2,28.94,ENE,67,0.0,0.0,80,0.00,,,0.00,WUHU216WMR100,2013-03-02 09:32:00,
2013-03-02 04:37:00,25.5,20.2,28.94,ENE,67,0.0,0.0,80,0.00,,,0.00,WUHU216WMR100,2013-03-02 09:37:00,
2013-03-02 04:42:00,25.3,20.0,28.94,ENE,67,0.0,0.0,80,0.00,,,0.00,WUHU216WMR100,2013-03-02 09:42:00,
2013-03-02 04:47:00,25.5,19.9,28.94,ENE,67,0.0,0.0,79,0.00,,,0.00,WUHU216WMR100,2013-03-02 09:47:00,
2013-03-02 04:52:00,25.3,19.7,28.94,ENE,67,0.0,0.0,79,0.00,,,0.00,WUHU216WMR100,2013-03-02 09:52:00,
2013-03-02 04:57:00,25.3,19.4,28.94,ENE,67,0.0,0.0,78,0.00,,,0.00,WUHU216WMR100,2013-03-02 09:57:00,
2013-03-02 05:02:00,25.5,19.3,28.94,ENE,67,0.0,0.0,77,0.00,,,0.00,WUHU216WMR100,2013-03-02 10:02:00,
2013-03-02 05:07:00,25.3,19.1,28.94,ENE,67,0.0,0.0,77,0.00,,,0.00,WUHU216WMR100,2013-03-02 10:07:00,
2013-03-02 05:12:00,25.3,18.8,28.94,ENE,67,0.0,0.0,76,0.00,,,0.00,WUHU216WMR100,2013-03-02 10:12:00,
2013-03-02 05:17:00,25.3,18.8,28.94,ENE,67,0.0,0.0,76,0.00,,,0.00,WUHU216WMR100,2013-03-02 10:17:00,
2013-03-02 05:22:00,25.3,18.5,28.94,ENE,67,0.0,0.0,75,0.00,,,0.00,WUHU216WMR100,2013-03-02 10:22:00,
2013-03-02 05:27:00,25.3,18.2,28.94,ENE,67,0.0,0.0,74,0.00,,,0.00,WUHU216WMR100,2013-03-02 10:27:00,
2013-03-02 05:32:00,25.5,18.1,28.94,ENE,67,0.0,0.0,73,0.00,,,0.00,WUHU216WMR100,2013-03-02 10:32:00,
2013-03-02 05:37:00,25.5,18.1,28.94,ENE,67,0.0,0.0,73,0.00,,,0.00,WUHU216WMR100,2013-03-02 10:37:00,
2013-03-02 05:42:00,25.3,17.6,28.94,ENE,67,0.0,0.0,72,0.00,,,0.00,WUHU216WMR100,2013-03-02 10:42:00,
2013-03-02 05:47:00,25.3,17.9,28.94,ENE,67,0.0,0.0,73,0.00,,,0.00,WUHU216WMR100,2013-03-02 10:47:00,
2013-03-02 05:52:00,25.3,17.9,28.94,ENE,67,0.0,0.0,73,0.00,,,0.00,WUHU216WMR100,2013-03-02 10:52:00,
2013-03-02 05:57:00,25.2,18.1,28.94,ENE,67,0.0,0.0,74,0.00,,,0.00,WUHU216WMR100,2013-03-02 10:57:00,
2013-03-02 06:02:00,25.2,18.1,28.94,ENE,67,0.0,0.0,74,0.00,,,0.00,WUHU216WMR100,2013-03-02 11:02:00,
2013-03-02 06:07:00,25.2,18.4,28.94,ENE,67,0.0,0.0,75,0.00,,,0.00,WUHU216WMR100,2013-03-02 11:07:00,
2013-03-02 06:12:00,25.2,18.7,28.94,ENE,67,0.0,0.0,76,0.00,,,0.00,WUHU216WMR100,2013-03-02 11:12:00,
2013-03-02 06:17:00,25.2,18.7,28.94,ENE,67,0.0,0.0,76,0.00,,,0.00,WUHU216WMR100,2013-03-02 11:17:00,
2013-03-02 06:22:00,25.0,18.5,28.94,ENE,67,0.0,0.0,76,0.00,,,0.00,WUHU216WMR100,2013-03-02 11:22:00,
2013-03-02 06:27:00,25.0,18.8,28.94,ENE,67,0.0,0.0,77,0.00,,,0.00,WUHU216WMR100,2013-03-02 11:27:00,
2013-03-02 06:32:00,25.0,18.8,28.94,ENE,67,0.0,0.0,77,0.00,,,0.00,WUHU216WMR100,2013-03-02 11:32:00,
2013-03-02 06:37:00,25.0,19.1,28.94,ENE,67,0.0,0.0,78,0.00,,,0.00,WUHU216WMR100,2013-03-02 11:37:00,
2013-03-02 06:42:00,25.0,19.1,28.94,ENE,67,0.0,0.0,78,0.00,,,0.00,WUHU216WMR100,2013-03-02 11:42:00,
2013-03-02 06:47:00,24.8,19.2,28.94,ENE,67,0.0,0.0,79,0.00,,,0.00,WUHU216WMR100,2013-03-02 11:47:00,
2013-03-02 06:52:00,24.8,19.2,28.94,ENE,67,0.0,0.0,79,0.00,,,0.00,WUHU216WMR100,2013-03-02 11:52:00,
2013-03-02 06:57:00,24.8,19.2,28.94,ENE,67,0.0,0.0,79,0.00,,,0.00,WUHU216WMR100,2013-03-02 11:57:00,
2013-03-02 07:02:00,24.8,19.2,28.94,ENE,67,0.0,0.0,79,0.00,,,0.00,WUHU216WMR100,2013-03-02 12:02:00,
2013-03-02 07:07:00,25.0,19.1,28.94,ENE,67,0.0,0.0,78,0.00,,,0.00,WUHU216WMR100,2013-03-02 12:07:00,
2013-03-02 07:12:00,25.0,19.4,28.94,ENE,67,0.0,0.0,79,0.00,,,0.00,WUHU216WMR100,2013-03-02 12:12:00,
2013-03-02 07:17:00,25.0,19.1,28.94,ENE,67,0.0,0.0,78,0.00,,,0.00,WUHU216WMR100,2013-03-02 12:17:00,
2013-03-02 07:22:00,25.0,19.1,28.94,ENE,67,0.0,0.0,78,0.00,,,0.00,WUHU216WMR100,2013-03-02 12:22:00,
2013-03-02 07:27:00,25.2,19.3,28.94,ENE,67,0.0,0.0,78,0.00,,,0.00,WUHU216WMR100,2013-03-02 12:27:00,
2013-03-02 07:32:00,25.2,19.3,28.94,ENE,67,0.0,0.0,78,0.00,,,0.00,WUHU216WMR100,2013-03-02 12:32:00,
2013-03-02 07:37:00,25.2,19.0,28.94,ENE,67,0.0,0.0,77,0.00,,,0.00,WUHU216WMR100,2013-03-02 12:37:00,
2013-03-02 07:42:00,25.3,19.1,28.94,ENE,67,0.0,0.0,77,0.00,,,0.00,WUHU216WMR100,2013-03-02 12:42:00,
2013-03-02 07:47:00,25.5,19.3,28.94,ENE,67,0.0,0.0,77,0.00,,,0.00,WUHU216WMR100,2013-03-02 12:47:00,
2013-03-02 07:52:00,25.7,19.8,28.94,ENE,67,0.0,0.0,78,0.00,,,0.00,WUHU216WMR100,2013-03-02 12:52:00,
2013-03-02 07:57:00,25.9,20.0,28.94,ENE,67,0.0,0.0,78,0.00,,,0.00,WUHU216WMR100,2013-03-02 12:57:00,
2013-03-02 08:03:00,26.1,20.2,28.94,ENE,67,0.0,0.0,78,0.00,,,0.00,WUHU216WMR100,2013-03-02 13:03:00,
2013-03-02 08:08:00,26.1,20.2,28.94,ENE,67,0.0,0.0,78,0.00,,,0.00,WUHU216WMR100,2013-03-02 13:08:00,
2013-03-02 08:13:00,26.2,20.0,28.94,ENE,67,0.0,0.0,77,0.00,,,0.00,WUHU216WMR100,2013-03-02 13:13:00,
2013-03-02 08:17:00,26.2,19.7,28.94,ENE,67,0.0,0.0,76,0.00,,,0.00,WUHU216WMR100,2013-03-02 13:17:00,
2013-03-02 08:23:00,26.8,20.3,28.97,ENE,67,0.0,0.0,76,0.00,,,0.00,WUHU216WMR100,2013-03-02 13:23:00,
2013-03-02 08:28:00,26.8,20.0,28.97,ENE,67,0.0,0.0,75,0.00,,,0.00,WUHU216WMR100,2013-03-02 13:28:00,
2013-03-02 08:33:00,26.8,20.0,28.97,ENE,67,0.0,0.0,75,0.00,,,0.00,WUHU216WMR100,2013-03-02 13:33:00,
2013-03-02 08:38:00,27.0,19.9,28.97,ENE,67,0.0,0.0,74,0.00,,,0.00,WUHU216WMR100,2013-03-02 13:38:00,
2013-03-02 08:43:00,27.1,19.6,28.97,ENE,67,0.0,0.0,73,0.00,,,0.00,WUHU216WMR100,2013-03-02 13:43:00,
2013-03-02 08:48:00,27.3,19.5,28.97,ENE,67,0.0,0.0,72,0.00,,,0.00,WUHU216WMR100,2013-03-02 13:48:00,
2013-03-02 08:53:00,27.9,20.1,28.97,ENE,67,0.0,0.0,72,0.00,,,0.00,WUHU216WMR100,2013-03-02 13:53:00,
2013-03-02 08:58:00,28.4,20.6,28.97,ENE,67,0.0,0.0,72,0.00,,,0.00,WUHU216WMR100,2013-03-02 13:58:00,
2013-03-02 09:03:00,28.8,20.6,28.97,ENE,67,0.0,0.0,71,0.00,,,0.00,WUHU216WMR100,2013-03-02 14:03:00,
2013-03-02 09:09:00,29.1,20.6,28.97,ENE,67,0.0,0.0,70,0.00,,,0.00,WUHU216WMR100,2013-03-02 14:09:00,
2013-03-02 09:14:00,29.3,20.1,28.97,ENE,67,0.0,0.0,68,0.00,,,0.00,WUHU216WMR100,2013-03-02 14:14:00,
2013-03-02 09:19:00,29.1,18.9,28.97,ENE,67,0.0,0.0,65,0.00,,,0.00,WUHU216WMR100,2013-03-02 14:19:00,
2013-03-02 09:24:00,29.7,19.4,28.97,ENE,67,0.0,0.0,65,0.00,,,0.00,WUHU216WMR100,2013-03-02 14:24:00,
2013-03-02 09:29:00,29.5,18.5,28.97,ENE,67,0.0,0.0,63,0.00,,,0.00,WUHU216WMR100,2013-03-02 14:29:00,
2013-03-02 09:34:00,29.5,17.4,28.97,ENE,67,0.0,0.0,60,0.00,,,0.00,WUHU216WMR100,2013-03-02 14:34:00,
2013-03-02 09:39:00,29.5,18.1,28.97,ENE,67,0.0,0.0,62,0.00,,,0.00,WUHU216WMR100,2013-03-02 14:39:00,
2013-03-02 09:44:00,29.7,18.3,28.97,ENE,67,0.0,0.0,62,0.00,,,0.00,WUHU216WMR100,2013-03-02 14:44:00,
2013-03-02 09:49:00,30.0,18.2,28.97,ENE,67,0.0,0.0,61,0.00,,,0.00,WUHU216WMR100,2013-03-02 14:49:00,
2013-03-02 09:54:00,28.9,17.2,28.97,ENE,67,0.0,0.0,61,0.00,,,0.00,WUHU216WMR100,2013-03-02 14:54:00,
2013-03-02 09:59:00,28.8,18.2,28.97,ENE,67,0.0,0.0,64,0.00,,,0.00,WUHU216WMR100,2013-03-02 14:59:00,
2013-03-02 10:04:00,28.9,18.7,28.97,ENE,67,0.0,0.0,65,0.00,,,0.00,WUHU216WMR100,2013-03-02 15:04:00,
2013-03-02 10:09:00,28.9,19.0,28.97,ENE,67,0.0,0.0,66,0.00,,,0.00,WUHU216WMR100,2013-03-02 15:09:00,
2013-03-02 10:14:00,31.3,20.2,28.97,ENE,67,0.0,0.0,63,0.00,,,0.00,WUHU216WMR100,2013-03-02 15:14:00,
2013-03-02 10:19:00,31.1,17.7,28.94,ENE,67,0.0,0.0,57,0.00,,,0.00,WUHU216WMR100,2013-03-02 15:19:00,
2013-03-02 10:24:00,29.5,15.3,28.94,ENE,67,0.0,0.0,55,0.00,,,0.00,WUHU216WMR100,2013-03-02 15:24:00,
2013-03-02 10:30:00,29.5,14.9,28.94,ENE,67,0.0,0.0,54,0.00,,,0.00,WUHU216WMR100,2013-03-02 15:30:00,
2013-03-02 10:35:00,31.5,15.9,28.94,ENE,67,0.0,0.0,52,0.00,,,0.00,WUHU216WMR100,2013-03-02 15:35:00,
2013-03-02 10:40:00,32.0,16.8,28.94,ENE,67,0.0,0.0,53,0.00,,,0.00,WUHU216WMR100,2013-03-02 15:40:00,
2013-03-02 10:45:00,31.6,15.9,28.94,ENE,67,0.0,0.0,52,0.00,,,0.00,WUHU216WMR100,2013-03-02 15:45:00,
2013-03-02 10:50:00,31.1,14.6,28.94,ENE,67,0.0,0.0,50,0.00,,,0.00,WUHU216WMR100,2013-03-02 15:50:00,
2013-03-02 10:55:00,32.7,16.5,28.94,ENE,67,0.0,0.0,51,0.00,,,0.00,WUHU216WMR100,2013-03-02 15:55:00,
2013-03-02 11:00:00,31.8,13.2,28.94,ENE,67,0.0,0.0,46,0.00,,,0.00,WUHU216WMR100,2013-03-02 16:00:00,
2013-03-02 11:05:00,31.1,12.6,28.97,ENE,67,0.0,0.0,46,0.00,,,0.00,WUHU216WMR100,2013-03-02 16:05:00,
2013-03-02 11:10:00,31.6,13.6,28.97,ENE,67,0.0,0.0,47,0.00,,,0.00,WUHU216WMR100,2013-03-02 16:10:00,
2013-03-02 11:15:00,30.7,12.7,28.97,ENE,67,0.0,0.0,47,0.00,,,0.00,WUHU216WMR100,2013-03-02 16:15:00,
2013-03-02 11:20:00,30.7,12.7,28.97,ENE,67,0.0,0.0,47,0.00,,,0.00,WUHU216WMR100,2013-03-02 16:20:00,
2013-03-02 11:25:00,30.9,12.9,28.97,ENE,67,0.0,0.0,47,0.00,,,0.00,WUHU216WMR100,2013-03-02 16:25:00,
2013-03-02 11:30:00,30.2,12.8,28.97,ENE,67,0.0,0.0,48,0.00,,,0.00,WUHU216WMR100,2013-03-02 16:30:00,
2013-03-02 11:35:00,30.4,13.9,28.97,ENE,67,0.0,0.0,50,0.00,,,0.00,WUHU216WMR100,2013-03-02 16:35:00,
2013-03-02 11:40:00,30.7,14.2,28.97,ENE,67,0.0,0.0,50,0.00,,,0.00,WUHU216WMR100,2013-03-02 16:40:00,
2013-03-02 11:45:00,31.1,14.6,28.97,ENE,67,0.0,0.0,50,0.00,,,0.00,WUHU216WMR100,2013-03-02 16:45:00,
2013-03-02 11:50:00,30.2,12.8,28.97,ENE,67,0.0,0.0,48,0.00,,,0.00,WUHU216WMR100,2013-03-02 16:50:00,
2013-03-02 11:55:00,30.2,12.8,28.97,ENE,67,0.0,0.0,48,0.00,,,0.00,WUHU216WMR100,2013-03-02 16:55:00,
2013-03-02 12:00:00,30.7,13.7,28.97,ENE,67,0.0,0.0,49,0.00,,,0.00,WUHU216WMR100,2013-03-02 17:00:00,
2013-03-02 12:05:00,30.6,13.6,28.94,ENE,67,0.0,0.0,49,0.00,,,0.00,WUHU216WMR100,2013-03-02 17:05:00,
2013-03-02 12:10:00,32.7,16.0,28.94,ENE,67,0.0,0.0,50,0.00,,,0.00,WUHU216WMR100,2013-03-02 17:10:00,
2013-03-02 12:15:00,33.1,15.4,28.94,ENE,67,0.0,0.0,48,0.00,,,0.00,WUHU216WMR100,2013-03-02 17:15:00,
2013-03-02 12:20:00,31.6,13.1,28.97,ENE,67,0.0,0.0,46,0.00,,,0.00,WUHU216WMR100,2013-03-02 17:20:00,
2013-03-02 12:25:00,31.1,14.1,28.97,ENE,67,0.0,0.0,49,0.00,,,0.00,WUHU216WMR100,2013-03-02 17:25:00,
2013-03-02 12:30:00,30.9,15.3,28.97,ENE,67,0.0,0.0,52,0.00,,,0.00,WUHU216WMR100,2013-03-02 17:30:00,
2013-03-02 12:35:00,30.2,16.4,28.97,ENE,67,0.0,0.0,56,0.00,,,0.00,WUHU216WMR100,2013-03-02 17:35:00,
2013-03-02 12:40:00,30.6,17.2,28.97,ENE,67,0.0,0.0,57,0.00,,,0.00,WUHU216WMR100,2013-03-02 17:40:00,
2013-03-02 12:45:00,31.8,18.3,28.97,ENE,67,0.0,0.0,57,0.00,,,0.00,WUHU216WMR100,2013-03-02 17:45:00,
2013-03-02 12:50:00,31.6,17.3,28.97,ENE,67,0.0,0.0,55,0.00,,,0.00,WUHU216WMR100,2013-03-02 17:50:00,
2013-03-02 12:55:00,31.6,17.7,28.97,ENE,67,0.0,0.0,56,0.00,,,0.00,WUHU216WMR100,2013-03-02 17:55:00,
2013-03-02 13:00:00,30.4,17.0,28.97,ENE,67,0.0,0.0,57,0.00,,,0.00,WUHU216WMR100,2013-03-02 18:00:00,
2013-03-02 13:05:00,29.7,17.2,28.94,ENE,67,0.0,0.0,59,0.00,,,0.00,WUHU216WMR100,2013-03-02 18:05:00,
2013-03-02 13:10:00,29.5,17.4,28.94,ENE,67,0.0,0.0,60,0.00,,,0.00,WUHU216WMR100,2013-03-02 18:10:00,
2013-03-02 13:15:00,29.8,17.6,28.94,ENE,67,0.0,0.0,60,0.00,,,0.00,WUHU216WMR100,2013-03-02 18:15:00,
2013-03-02 13:20:00,29.8,16.0,28.94,ENE,67,0.0,0.0,56,0.00,,,0.00,WUHU216WMR100,2013-03-02 18:20:00,
2013-03-02 13:25:00,29.8,15.6,28.94,ENE,67,0.0,0.0,55,0.00,,,0.00,WUHU216WMR100,2013-03-02 18:25:00,
2013-03-02 13:30:00,29.5,14.9,28.94,ENE,67,0.0,0.0,54,0.00,,,0.00,WUHU216WMR100,2013-03-02 18:30:00,
2013-03-02 13:35:00,29.8,15.2,28.94,ENE,67,0.0,0.0,54,0.00,,,0.00,WUHU216WMR100,2013-03-02 18:35:00,
2013-03-02 13:40:00,29.8,15.2,28.94,ENE,67,0.0,0.0,54,0.00,,,0.00,WUHU216WMR100,2013-03-02 18:40:00,
2013-03-02 13:45:00,29.8,14.7,28.94,ENE,67,0.0,0.0,53,0.00,,,0.00,WUHU216WMR100,2013-03-02 18:45:00,
2013-03-02 13:50:00,29.8,14.3,28.94,ENE,67,0.0,0.0,52,0.00,,,0.00,WUHU216WMR100,2013-03-02 18:50:00,
2013-03-02 13:55:00,30.4,14.8,28.94,ENE,67,0.0,0.0,52,0.00,,,0.00,WUHU216WMR100,2013-03-02 18:55:00,
2013-03-02 14:00:00,30.9,14.8,28.94,ENE,67,0.0,0.0,51,0.00,,,0.00,WUHU216WMR100,2013-03-02 19:00:00,
2013-03-02 14:05:00,30.7,14.2,28.94,ENE,67,0.0,0.0,50,0.00,,,0.00,WUHU216WMR100,2013-03-02 19:05:00,
2013-03-02 14:10:00,31.1,13.6,28.94,ENE,67,0.0,0.0,48,0.00,,,0.00,WUHU216WMR100,2013-03-02 19:10:00,
2013-03-02 14:15:00,31.3,14.7,28.94,ENE,67,0.0,0.0,50,0.00,,,0.00,WUHU216WMR100,2013-03-02 19:15:00,
2013-03-02 14:20:00,31.3,14.7,28.94,ENE,67,0.0,0.0,50,0.00,,,0.00,WUHU216WMR100,2013-03-02 19:20:00,
2013-03-02 14:25:00,31.1,15.0,28.94,ENE,67,0.0,0.0,51,0.00,,,0.00,WUHU216WMR100,2013-03-02 19:25:00,
2013-03-02 14:30:00,30.9,15.3,28.94,ENE,67,0.0,0.0,52,0.00,,,0.00,WUHU216WMR100,2013-03-02 19:30:00,
2013-03-02 14:35:00,30.9,15.7,28.94,ENE,67,0.0,0.0,53,0.00,,,0.00,WUHU216WMR100,2013-03-02 19:35:00,
2013-03-02 14:40:00,30.4,14.8,28.94,ENE,67,0.0,0.0,52,0.00,,,0.00,WUHU216WMR100,2013-03-02 19:40:00,
2013-03-02 14:45:00,30.2,14.6,28.94,ENE,67,0.0,0.0,52,0.00,,,0.00,WUHU216WMR100,2013-03-02 19:45:00,
2013-03-02 14:50:00,30.4,14.8,28.94,ENE,67,0.0,0.0,52,0.00,,,0.00,WUHU216WMR100,2013-03-02 19:50:00,
2013-03-02 14:55:00,30.2,14.6,28.94,ENE,67,0.0,0.0,52,0.00,,,0.00,WUHU216WMR100,2013-03-02 19:55:00,
2013-03-02 15:00:00,29.8,13.3,28.94,ENE,67,0.0,0.0,50,0.00,,,0.00,WUHU216WMR100,2013-03-02 20:00:00,
2013-03-02 15:05:00,30.0,13.5,28.94,ENE,67,0.0,0.0,50,0.00,,,0.00,WUHU216WMR100,2013-03-02 20:05:00,
2013-03-02 15:10:00,29.7,14.2,28.94,ENE,67,0.0,0.0,52,0.00,,,0.00,WUHU216WMR100,2013-03-02 20:10:00,
2013-03-02 15:15:00,29.8,14.3,28.94,ENE,67,0.0,0.0,52,0.00,,,0.00,WUHU216WMR100,2013-03-02 20:15:00,
2013-03-02 15:20:00,29.5,13.5,28.94,ENE,67,0.0,0.0,51,0.00,,,0.00,WUHU216WMR100,2013-03-02 20:20:00,
2013-03-02 15:25:00,29.7,14.2,28.94,ENE,67,0.0,0.0,52,0.00,,,0.00,WUHU216WMR100,2013-03-02 20:25:00,
2013-03-02 15:30:00,29.7,14.6,28.94,ENE,67,0.0,0.0,53,0.00,,,0.00,WUHU216WMR100,2013-03-02 20:30:00,
2013-03-02 15:35:00,29.5,14.4,28.94,ENE,67,0.0,0.0,53,0.00,,,0.00,WUHU216WMR100,2013-03-02 20:35:00,
2013-03-02 15:40:00,29.7,14.6,28.94,ENE,67,0.0,0.0,53,0.00,,,0.00,WUHU216WMR100,2013-03-02 20:40:00,
2013-03-02 15:45:00,29.5,14.4,28.94,ENE,67,0.0,0.0,53,0.00,,,0.00,WUHU216WMR100,2013-03-02 20:45:00,
2013-03-02 15:50:00,29.5,14.9,28.94,ENE,67,0.0,0.0,54,0.00,,,0.00,WUHU216WMR100,2013-03-02 20:50:00,
2013-03-02 15:55:00,29.7,15.1,28.94,ENE,67,0.0,0.0,54,0.00,,,0.00,WUHU216WMR100,2013-03-02 20:55:00,
2013-03-02 16:00:00,30.0,15.8,28.94,ENE,67,0.0,0.0,55,0.00,,,0.00,WUHU216WMR100,2013-03-02 21:00:00,
2013-03-02 16:05:00,29.8,16.0,28.94,ENE,67,0.0,0.0,56,0.00,,,0.00,WUHU216WMR100,2013-03-02 21:05:00,
2013-03-02 16:10:00,29.8,16.0,28.94,ENE,67,0.0,0.0,56,0.00,,,0.00,WUHU216WMR100,2013-03-02 21:10:00,
2013-03-02 16:15:00,29.7,16.3,28.94,ENE,67,0.0,0.0,57,0.00,,,0.00,WUHU216WMR100,2013-03-02 21:15:00,
2013-03-02 16:20:00,29.7,16.3,28.94,ENE,67,0.0,0.0,57,0.00,,,0.00,WUHU216WMR100,2013-03-02 21:20:00,
2013-03-02 16:25:00,29.3,16.0,28.94,ENE,67,0.0,0.0,57,0.00,,,0.00,WUHU216WMR100,2013-03-02 21:25:00,
2013-03-02 16:30:00,29.3,16.0,28.94,ENE,67,0.0,0.0,57,0.00,,,0.00,WUHU216WMR100,2013-03-02 21:30:00,
2013-03-02 16:35:00,28.9,15.6,28.94,ENE,67,0.0,0.0,57,0.00,,,0.00,WUHU216WMR100,2013-03-02 21:35:00,
2013-03-02 16:40:00,28.8,15.5,28.94,ENE,67,0.0,0.0,57,0.00,,,0.00,WUHU216WMR100,2013-03-02 21:40:00,
2013-03-02 16:45:00,28.9,16.0,28.94,ENE,67,0.0,0.0,58,0.00,,,0.00,WUHU216WMR100,2013-03-02 21:45:00,
2013-03-02 16:50:00,28.6,15.7,28.94,ENE,67,0.0,0.0,58,0.00,,,0.00,WUHU216WMR100,2013-03-02 21:50:00,
2013-03-02 16:55:00,28.6,15.3,28.94,ENE,67,0.0,0.0,57,0.00,,,0.00,WUHU216WMR100,2013-03-02 21:55:00,
2013-03-02 17:00:00,28.4,15.5,28.94,ENE,67,0.0,0.0,58,0.00,,,0.00,WUHU216WMR100,2013-03-02 22:00:00,
2013-03-02 17:05:00,28.4,16.3,28.94,ENE,67,0.0,0.0,60,0.00,,,0.00,WUHU216WMR100,2013-03-02 22:05:00,
2013-03-02 17:10:00,28.0,16.3,28.94,ENE,67,0.0,0.0,61,0.00,,,0.00,WUHU216WMR100,2013-03-02 22:10:00,
2013-03-02 17:15:00,28.0,16.7,28.94,ENE,67,0.0,0.0,62,0.00,,,0.00,WUHU216WMR100,2013-03-02 22:15:00,
2013-03-02 17:20:00,28.0,15.9,28.94,ENE,67,0.0,0.0,60,0.00,,,0.00,WUHU216WMR100,2013-03-02 22:20:00,
2013-03-02 17:25:00,28.2,15.7,28.94,ENE,67,0.0,0.0,59,0.00,,,0.00,WUHU216WMR100,2013-03-02 22:25:00,
2013-03-02 17:30:00,28.2,14.9,28.94,ENE,67,0.0,0.0,57,0.00,,,0.00,WUHU216WMR100,2013-03-02 22:30:00,
2013-03-02 17:35:00,28.2,14.5,28.97,ENE,67,0.0,0.0,56,0.00,,,0.00,WUHU216WMR100,2013-03-02 22:35:00,
2013-03-02 17:40:00,28.4,15.1,28.97,ENE,67,0.0,0.0,57,0.00,,,0.00,WUHU216WMR100,2013-03-02 22:40:00,
2013-03-02 17:45:00,28.2,14.9,28.97,ENE,67,0.0,0.0,57,0.00,,,0.00,WUHU216WMR100,2013-03-02 22:45:00,
2013-03-02 17:50:00,28.2,15.7,28.97,ENE,67,0.0,0.0,59,0.00,,,0.00,WUHU216WMR100,2013-03-02 22:50:00,
2013-03-02 17:55:00,28.0,15.9,28.97,ENE,67,0.0,0.0,60,0.00,,,0.00,WUHU216WMR100,2013-03-02 22:55:00,
2013-03-02 18:00:00,27.9,16.2,28.97,ENE,67,0.0,0.0,61,0.00,,,0.00,WUHU216WMR100,2013-03-02 23:00:00,
2013-03-02 18:05:00,27.9,16.2,28.97,ENE,67,0.0,0.0,61,0.00,,,0.00,WUHU216WMR100,2013-03-02 23:05:00,
2013-03-02 18:10:00,27.9,16.6,28.97,ENE,67,0.0,0.0,62,0.00,,,0.00,WUHU216WMR100,2013-03-02 23:10:00,
2013-03-02 18:15:00,27.9,16.6,28.97,ENE,67,0.0,0.0,62,0.00,,,0.00,WUHU216WMR100,2013-03-02 23:15:00,
2013-03-02 18:20:00,27.9,17.0,28.97,ENE,67,0.0,0.0,63,0.00,,,0.00,WUHU216WMR100,2013-03-02 23:20:00,
2013-03-02 18:26:00,27.7,16.8,28.97,ENE,67,0.0,0.0,63,0.00,,,0.00,WUHU216WMR100,2013-03-02 23:26:00,
2013-03-02 18:31:00,27.7,16.8,28.97,ENE,67,0.0,0.0,63,0.00,,,0.00,WUHU216WMR100,2013-03-02 23:31:00,
2013-03-02 18:37:00,27.7,17.2,28.97,ENE,67,0.0,0.0,64,0.00,,,0.00,WUHU216WMR100,2013-03-02 23:37:00,
2013-03-02 18:42:00,27.7,17.5,28.97,ENE,67,0.0,0.0,65,0.00,,,0.00,WUHU216WMR100,2013-03-02 23:42:00,
2013-03-02 18:47:00,27.7,17.5,28.97,ENE,67,0.0,0.0,65,0.00,,,0.00,WUHU216WMR100,2013-03-02 23:47:00,
2013-03-02 18:52:00,27.7,17.9,28.97,ENE,67,0.0,0.0,66,0.00,,,0.00,WUHU216WMR100,2013-03-02 23:52:00,
2013-03-02 18:57:00,27.7,17.9,28.97,ENE,67,0.0,0.0,66,0.00,,,0.00,WUHU216WMR100,2013-03-02 23:57:00,
2013-03-02 19:02:00,27.7,18.2,28.97,ENE,67,0.0,0.0,67,0.00,,,0.00,WUHU216WMR100,2013-03-03 00:02:00,
2013-03-02 19:07:00,27.7,18.2,28.97,ENE,67,0.0,0.0,67,0.00,,,0.00,WUHU216WMR100,2013-03-03 00:07:00,
2013-03-02 19:12:00,27.7,18.6,28.97,ENE,67,0.0,0.0,68,0.00,,,0.00,WUHU216WMR100,2013-03-03 00:12:00,
2013-03-02 19:17:00,27.7,18.9,28.97,ENE,67,0.0,0.0,69,0.00,,,0.00,WUHU216WMR100,2013-03-03 00:17:00,
2013-03-02 19:22:00,27.5,19.1,28.97,ENE,67,0.0,0.0,70,0.00,,,0.00,WUHU216WMR100,2013-03-03 00:22:00,
2013-03-02 19:28:00,27.5,19.4,28.97,ENE,67,0.0,0.0,71,0.00,,,0.00,WUHU216WMR100,2013-03-03 00:28:00,
2013-03-02 19:33:00,27.5,19.7,28.97,ENE,67,0.0,0.0,72,0.00,,,0.00,WUHU216WMR100,2013-03-03 00:33:00,
2013-03-02 19:38:00,27.3,19.8,28.97,ENE,67,0.0,0.0,73,0.00,,,0.00,WUHU216WMR100,2013-03-03 00:38:00,
2013-03-02 19:43:00,27.3,20.1,28.97,ENE,67,0.0,0.0,74,0.00,,,0.00,WUHU216WMR100,2013-03-03 00:43:00,
2013-03-02 19:48:00,27.1,20.0,28.97,ENE,67,0.0,0.0,74,0.00,,,0.00,WUHU216WMR100,2013-03-03 00:48:00,
2013-03-02 19:53:00,27.1,20.0,29.00,ENE,67,0.0,0.0,74,0.00,,,0.00,WUHU216WMR100,2013-03-03 00:53:00,
2013-03-02 19:58:00,27.1,20.6,29.00,ENE,67,0.0,0.0,76,0.00,,,0.00,WUHU216WMR100,2013-03-03 00:58:00,
2013-03-02 20:03:00,27.1,20.6,29.00,ENE,67,0.0,0.0,76,0.00,,,0.00,WUHU216WMR100,2013-03-03 01:03:00,
2013-03-02 20:08:00,27.1,20.9,28.97,ENE,67,0.0,0.0,77,0.00,,,0.00,WUHU216WMR100,2013-03-03 01:08:00,
2013-03-02 20:13:00,27.1,21.2,28.97,ENE,67,0.0,0.0,78,0.00,,,0.00,WUHU216WMR100,2013-03-03 01:13:00,
2013-03-02 20:18:00,27.0,21.4,28.97,ENE,67,0.0,0.0,79,0.00,,,0.00,WUHU216WMR100,2013-03-03 01:18:00,
2013-03-02 20:23:00,27.0,21.4,28.97,ENE,67,0.0,0.0,79,0.00,,,0.00,WUHU216WMR100,2013-03-03 01:23:00,
2013-03-02 20:28:00,27.0,21.4,28.97,ENE,67,0.0,0.0,79,0.00,,,0.00,WUHU216WMR100,2013-03-03 01:28:00,
2013-03-02 20:33:00,27.0,21.4,28.97,ENE,67,0.0,0.0,79,0.00,,,0.00,WUHU216WMR100,2013-03-03 01:33:00,
2013-03-02 20:38:00,27.0,21.4,28.97,ENE,67,0.0,0.0,79,0.00,,,0.00,WUHU216WMR100,2013-03-03 01:38:00,
2013-03-02 20:43:00,27.0,21.4,28.97,ENE,67,0.0,0.0,79,0.00,,,0.00,WUHU216WMR100,2013-03-03 01:43:00,
2013-03-02 20:48:00,27.0,21.4,28.97,ENE,67,0.0,0.0,79,0.00,,,0.00,WUHU216WMR100,2013-03-03 01:48:00,
2013-03-02 20:53:00,27.0,21.4,28.97,ENE,67,0.0,0.0,79,0.00,,,0.00,WUHU216WMR100,2013-03-03 01:53:00,
2013-03-02 20:58:00,27.0,21.7,28.97,ENE,67,0.0,0.0,80,0.00,,,0.00,WUHU216WMR100,2013-03-03 01:58:00,
2013-03-02 21:03:00,26.8,21.5,28.97,ENE,67,0.0,0.0,80,0.00,,,0.00,WUHU216WMR100,2013-03-03 02:03:00,
2013-03-02 21:08:00,26.8,21.5,28.97,ENE,67,0.0,0.0,80,0.00,,,0.00,WUHU216WMR100,2013-03-03 02:08:00,
2013-03-02 21:13:00,26.8,21.7,28.97,ENE,67,0.0,0.0,81,0.00,,,0.00,WUHU216WMR100,2013-03-03 02:13:00,
2013-03-02 21:18:00,26.8,21.7,28.97,ENE,67,0.0,0.0,81,0.00,,,0.00,WUHU216WMR100,2013-03-03 02:18:00,
2013-03-02 21:23:00,26.8,21.7,29.00,ENE,67,0.0,0.0,81,0.00,,,0.00,WUHU216WMR100,2013-03-03 02:23:00,
2013-03-02 21:28:00,26.8,21.7,29.00,ENE,67,0.0,0.0,81,0.00,,,0.00,WUHU216WMR100,2013-03-03 02:28:00,
2013-03-02 21:33:00,26.8,21.7,29.00,ENE,67,0.0,0.0,81,0.00,,,0.00,WUHU216WMR100,2013-03-03 02:33:00,
2013-03-02 21:38:00,26.8,21.7,29.00,ENE,67,0.0,0.0,81,0.00,,,0.00,WUHU216WMR100,2013-03-03 02:38:00,
2013-03-02 21:44:00,26.8,21.7,29.00,ENE,67,0.0,0.0,81,0.00,,,0.00,WUHU216WMR100,2013-03-03 02:44:00,
2013-03-02 21:49:00,26.6,21.6,29.00,ENE,67,0.0,0.0,81,0.00,,,0.00,WUHU216WMR100,2013-03-03 02:49:00,
2013-03-02 21:54:00,26.6,21.6,29.00,ENE,67,0.0,0.0,81,0.00,,,0.00,WUHU216WMR100,2013-03-03 02:54:00,
2013-03-02 21:59:00,26.6,21.6,29.00,ENE,67,0.0,0.0,81,0.00,,,0.00,WUHU216WMR100,2013-03-03 02:59:00,
2013-03-02 22:04:00,26.6,21.3,29.00,ENE,67,0.0,0.0,80,0.00,,,0.00,WUHU216WMR100,2013-03-03 03:04:00,
2013-03-02 22:09:00,26.4,21.1,29.00,ENE,67,0.0,0.0,80,0.00,,,0.00,WUHU216WMR100,2013-03-03 03:09:00,
2013-03-02 22:14:00,26.4,21.1,29.00,ENE,67,0.0,0.0,80,0.00,,,0.00,WUHU216WMR100,2013-03-03 03:14:00,
2013-03-02 22:19:00,26.4,21.1,29.00,ENE,67,0.0,0.0,80,0.00,,,0.00,WUHU216WMR100,2013-03-03 03:19:00,
2013-03-02 22:24:00,26.4,21.1,28.97,ENE,67,0.0,0.0,80,0.00,,,0.00,WUHU216WMR100,2013-03-03 03:24:00,
2013-03-02 22:29:00,26.4,21.1,28.97,ENE,67,0.0,0.0,80,0.00,,,0.00,WUHU216WMR100,2013-03-03 03:29:00,
2013-03-02 22:34:00,26.4,21.1,28.97,ENE,67,0.0,0.0,80,0.00,,,0.00,WUHU216WMR100,2013-03-03 03:34:00,
2013-03-02 22:39:00,26.4,21.1,28.97,ENE,67,0.0,0.0,80,0.00,,,0.00,WUHU216WMR100,2013-03-03 03:39:00,
2013-03-02 22:44:00,26.2,21.2,28.97,ENE,67,0.0,0.0,81,0.00,,,0.00,WUHU216WMR100,2013-03-03 03:44:00,
2013-03-02 22:49:00,26.2,21.2,28.97,ENE,67,0.0,0.0,81,0.00,,,0.00,WUHU216WMR100,2013-03-03 03:49:00,
2013-03-02 22:54:00,26.2,21.2,28.97,ENE,67,0.0,0.0,81,0.00,,,0.00,WUHU216WMR100,2013-03-03 03:54:00,
2013-03-02 22:59:00,26.2,21.2,28.97,ENE,67,0.0,0.0,81,0.00,,,0.00,WUHU216WMR100,2013-03-03 03:59:00,
2013-03-02 23:04:00,26.1,21.3,28.97,ENE,67,0.0,0.0,82,0.00,,,0.00,WUHU216WMR100,2013-03-03 04:04:00,
2013-03-02 23:09:00,26.2,21.4,28.97,ENE,67,0.0,0.0,82,0.00,,,0.00,WUHU216WMR100,2013-03-03 04:09:00,
2013-03-02 23:14:00,26.1,21.3,28.97,ENE,67,0.0,0.0,82,0.00,,,0.00,WUHU216WMR100,2013-03-03 04:14:00,
2013-03-02 23:19:00,26.1,21.3,28.97,ENE,67,0.0,0.0,82,0.00,,,0.00,WUHU216WMR100,2013-03-03 04:19:00,
2013-03-02 23:24:00,26.1,21.3,28.97,ENE,67,0.0,0.0,82,0.00,,,0.00,WUHU216WMR100,2013-03-03 04:24:00,
2013-03-02 23:29:00,26.1,21.3,28.97,ENE,67,0.0,0.0,82,0.00,,,0.00,WUHU216WMR100,2013-03-03 04:29:00,
2013-03-02 23:34:00,26.1,21.3,28.97,ENE,67,0.0,0.0,82,0.00,,,0.00,WUHU216WMR100,2013-03-03 04:34:00,
2013-03-02 23:39:00,26.1,21.3,28.97,ENE,67,0.0,0.0,82,0.00,,,0.00,WUHU216WMR100,2013-03-03 04:39:00,
2013-03-02 23:44:00,26.1,21.6,28.97,ENE,67,0.0,0.0,83,0.00,,,0.00,WUHU216WMR100,2013-03-03 04:44:00,
2013-03-02 23:49:00,25.9,21.4,28.97,ENE,67,0.0,0.0,83,0.00,,,0.00,WUHU216WMR100,2013-03-03 04:49:00,
2013-03-02 23:54:00,25.9,21.4,28.97,ENE,67,0.0,0.0,83,0.00,,,0.00,WUHU216WMR100,2013-03-03 04:54:00,
2013-03-02 23:59:00,25.7,21.0,28.97,ENE,67,0.0,0.0,82,0.00,,,0.00,WUHU216WMR100,2013-03-03 04:59:00,